Time,TemperatureF,DewpointF,PressureIn,WindDirection,WindDirectionDegrees,WindSpeedMPH,WindSpeedGustMPH,Humidity,HourlyPrecipIn,Conditions,Clouds,dailyrainin,SoftwareType,DateUTC
2013-07-02 00:01:00,66.0,57.0,29.92,NE,53,4.0,16.0,72,0.00,,,0.34,,2013-07-02 05:01:00,
2013-07-02 00:11:00,66.0,56.0,29.92,ENE,63,6.0,15.0,71,0.00,,,0.34,,2013-07-02 05:11:00,
2013-07-02 00:22:00,65.0,57.0,29.92,NE,47,5.0,14.0,75,0.01,,,0.35,,2013-07-02 05:22:00,
2013-07-02 00:32:00,65.0,58.0,29.93,NE,41,5.0,9.0,77,0.01,,,0.35,,2013-07-02 05:32:00,
2013-07-02 00:43:00,65.0,58.0,29.93,NE,41,5.0,9.0,77,0.01,,,0.35,,2013-07-02 05:43:00,
2013-07-02 00:53:00,64.0,57.0,29.92,NNE,16,3.0,10.0,79,0.01,,,0.35,,2013-07-02 05:53:00,
2013-07-02 01:01:00,63.0,57.0,29.92,NNE,14,7.0,8.0,81,0.02,,,0.36,,2013-07-02 06:01:00,
2013-07-02 01:11:00,63.0,57.0,29.92,NNE,14,7.0,8.0,81,0.02,,,0.36,,2013-07-02 06:11:00,
2013-07-02 01:23:00,63.0,57.0,29.92,ENE,62,3.0,14.0,82,0.01,,,0.36,,2013-07-02 06:23:00,
2013-07-02 01:34:00,63.0,58.0,29.92,ENE,59,2.0,9.0,83,0.02,,,0.37,,2013-07-02 06:34:00,
2013-07-02 01:43:00,63.0,58.0,29.92,ENE,59,2.0,9.0,83,0.02,,,0.37,,2013-07-02 06:43:00,
2013-07-02 01:53:00,62.0,57.0,29.92,ENE,62,3.0,8.0,85,0.02,,,0.37,,2013-07-02 06:53:00,
2013-07-02 02:01:00,62.0,57.0,29.92,NNE,31,7.0,9.0,85,0.01,,,0.37,,2013-07-02 07:01:00,
2013-07-02 02:11:00,62.0,57.0,29.92,NNE,31,7.0,9.0,85,0.01,,,0.37,,2013-07-02 07:11:00,
2013-07-02 02:22:00,62.0,57.0,29.91,NE,49,3.0,15.0,85,0.02,,,0.38,,2013-07-02 07:22:00,
2013-07-02 02:34:00,62.0,57.0,29.91,ENE,60,3.0,8.0,85,0.01,,,0.38,,2013-07-02 07:34:00,
2013-07-02 02:44:00,62.0,57.0,29.91,ENE,60,3.0,8.0,85,0.01,,,0.38,,2013-07-02 07:44:00,
2013-07-02 02:53:00,62.0,58.0,29.91,NE,34,3.0,8.0,86,0.01,,,0.38,,2013-07-02 07:53:00,
2013-07-02 03:02:00,62.0,58.0,29.91,NE,37,5.0,8.0,86,0.01,,,0.38,,2013-07-02 08:02:00,
2013-07-02 03:12:00,62.0,58.0,29.91,NE,37,5.0,8.0,86,0.01,,,0.38,,2013-07-02 08:12:00,
2013-07-02 03:22:00,62.0,58.0,29.90,North,4,3.0,9.0,86,0.00,,,0.38,,2013-07-02 08:22:00,
2013-07-02 03:33:00,62.0,58.0,29.90,North,8,5.0,9.0,86,0.00,,,0.38,,2013-07-02 08:33:00,
2013-07-02 03:44:00,62.0,58.0,29.90,North,8,5.0,9.0,86,0.00,,,0.38,,2013-07-02 08:44:00,
2013-07-02 03:53:00,62.0,57.0,29.90,North,353,4.0,10.0,85,0.00,,,0.38,,2013-07-02 08:53:00,
2013-07-02 04:02:00,62.0,57.0,29.90,NNE,25,3.0,9.0,84,0.00,,,0.38,,2013-07-02 09:02:00,
2013-07-02 04:11:00,62.0,57.0,29.90,NNE,25,3.0,9.0,84,0.00,,,0.38,,2013-07-02 09:11:00,
2013-07-02 04:23:00,62.0,57.0,29.90,North,10,3.0,12.0,83,0.00,,,0.38,,2013-07-02 09:23:00,
2013-07-02 04:33:00,62.0,57.0,29.90,North,9,6.0,9.0,83,0.00,,,0.38,,2013-07-02 09:33:00,
2013-07-02 04:43:00,62.0,57.0,29.90,North,9,6.0,9.0,83,0.00,,,0.38,,2013-07-02 09:43:00,
2013-07-02 04:52:00,62.0,56.0,29.91,ENE,62,5.0,15.0,82,0.00,,,0.38,,2013-07-02 09:52:00,
2013-07-02 05:01:00,62.0,57.0,29.91,NE,50,6.0,8.0,83,0.00,,,0.38,,2013-07-02 10:01:00,
2013-07-02 05:11:00,62.0,57.0,29.91,NE,50,6.0,8.0,83,0.00,,,0.38,,2013-07-02 10:11:00,
2013-07-02 05:22:00,62.0,56.0,29.91,NE,45,6.0,9.0,82,0.00,,,0.38,,2013-07-02 10:22:00,
2013-07-02 05:33:00,62.0,56.0,29.92,NE,54,3.0,10.0,82,0.00,,,0.38,,2013-07-02 10:33:00,
2013-07-02 05:44:00,62.0,56.0,29.92,NE,54,3.0,10.0,82,0.00,,,0.38,,2013-07-02 10:44:00,
2013-07-02 05:52:00,62.0,56.0,29.92,NNE,32,5.0,16.0,82,0.00,,,0.38,,2013-07-02 10:52:00,
2013-07-02 06:01:00,62.0,57.0,29.92,NNE,27,7.0,10.0,83,0.00,,,0.38,,2013-07-02 11:01:00,
2013-07-02 06:11:00,62.0,57.0,29.92,NNE,27,7.0,10.0,83,0.00,,,0.38,,2013-07-02 11:11:00,
2013-07-02 06:22:00,62.0,57.0,29.92,NE,48,7.0,14.0,83,0.00,,,0.38,,2013-07-02 11:22:00,
2013-07-02 06:33:00,62.0,57.0,29.92,NE,41,6.0,9.0,84,0.00,,,0.38,,2013-07-02 11:33:00,
2013-07-02 06:42:00,62.0,57.0,29.92,NE,41,6.0,9.0,84,0.00,,,0.38,,2013-07-02 11:42:00,
2013-07-02 06:52:00,62.0,57.0,29.93,North,0,7.0,10.0,84,0.00,,,0.38,,2013-07-02 11:52:00,
2013-07-02 07:01:00,62.0,57.0,29.93,NE,49,8.0,14.0,85,0.00,,,0.38,,2013-07-02 12:01:00,
2013-07-02 07:11:00,62.0,57.0,29.93,NE,49,8.0,14.0,85,0.00,,,0.38,,2013-07-02 12:11:00,
2013-07-02 07:23:00,62.0,57.0,29.93,NE,43,13.0,15.0,84,0.00,,,0.38,,2013-07-02 12:23:00,
2013-07-02 07:33:00,62.0,57.0,29.93,ENE,78,8.0,15.0,84,0.00,,,0.38,,2013-07-02 12:33:00,
2013-07-02 07:43:00,62.0,57.0,29.93,ENE,78,8.0,15.0,84,0.00,,,0.38,,2013-07-02 12:43:00,
2013-07-02 07:52:00,63.0,58.0,29.93,North,5,10.0,16.0,84,0.00,,,0.38,,2013-07-02 12:52:00,
2013-07-02 08:01:00,63.0,58.0,29.93,NE,50,3.0,18.0,84,0.00,,,0.37,,2013-07-02 13:01:00,
2013-07-02 08:11:00,63.0,58.0,29.93,NE,50,3.0,18.0,84,0.00,,,0.37,,2013-07-02 13:11:00,
2013-07-02 08:22:00,63.0,58.0,29.94,NNE,28,7.0,18.0,84,0.00,,,0.37,,2013-07-02 13:22:00,
2013-07-02 08:34:00,63.0,58.0,29.94,NE,47,7.0,12.0,84,0.00,,,0.37,,2013-07-02 13:34:00,
2013-07-02 08:43:00,63.0,58.0,29.94,NE,47,7.0,12.0,84,0.00,,,0.37,,2013-07-02 13:43:00,
2013-07-02 08:52:00,63.0,58.0,29.94,NNE,19,9.0,20.0,84,0.00,,,0.37,,2013-07-02 13:52:00,
2013-07-02 09:02:00,63.0,58.0,29.94,NE,39,8.0,14.0,85,0.00,,,0.37,,2013-07-02 14:02:00,
2013-07-02 09:11:00,63.0,58.0,29.94,NE,39,8.0,14.0,85,0.00,,,0.37,,2013-07-02 14:11:00,
2013-07-02 09:22:00,63.0,58.0,29.95,NE,47,7.0,10.0,85,0.00,,,0.37,,2013-07-02 14:22:00,
2013-07-02 09:33:00,63.0,58.0,29.95,NNE,33,3.0,10.0,85,0.00,,,0.37,,2013-07-02 14:33:00,
2013-07-02 09:43:00,63.0,58.0,29.95,NNE,33,3.0,10.0,85,0.00,,,0.37,,2013-07-02 14:43:00,
2013-07-02 09:53:00,63.0,58.0,29.95,NE,38,9.0,15.0,85,0.00,,,0.37,,2013-07-02 14:53:00,
2013-07-02 10:02:00,63.0,58.0,29.95,NNE,30,5.0,18.0,85,0.00,,,0.37,,2013-07-02 15:02:00,
2013-07-02 10:11:00,63.0,58.0,29.95,NNE,30,5.0,18.0,85,0.00,,,0.37,,2013-07-02 15:11:00,
2013-07-02 10:22:00,63.0,59.0,29.95,NE,54,4.0,18.0,86,0.00,,,0.37,,2013-07-02 15:22:00,
2013-07-02 10:33:00,63.0,58.0,29.96,NNE,14,8.0,10.0,85,0.00,,,0.37,,2013-07-02 15:33:00,
2013-07-02 10:44:00,63.0,58.0,29.96,NNE,14,8.0,10.0,85,0.00,,,0.37,,2013-07-02 15:44:00,
2013-07-02 10:53:00,63.0,59.0,29.96,NE,43,11.0,18.0,86,0.00,,,0.37,,2013-07-02 15:53:00,
2013-07-02 11:01:00,63.0,59.0,29.96,NNE,32,9.0,14.0,86,0.00,,,0.37,,2013-07-02 16:01:00,
2013-07-02 11:12:00,63.0,59.0,29.96,NNE,32,9.0,14.0,86,0.00,,,0.37,,2013-07-02 16:12:00,
2013-07-02 11:22:00,63.0,59.0,29.96,NE,39,6.0,15.0,86,0.00,,,0.37,,2013-07-02 16:22:00,
2013-07-02 11:33:00,63.0,58.0,29.96,NNE,13,9.0,15.0,85,0.00,,,0.37,,2013-07-02 16:33:00,
2013-07-02 11:43:00,63.0,58.0,29.96,NNE,13,9.0,15.0,85,0.00,,,0.37,,2013-07-02 16:43:00,
2013-07-02 11:52:00,64.0,59.0,29.96,NNE,30,9.0,18.0,85,0.00,,,0.37,,2013-07-02 16:52:00,
2013-07-02 12:02:00,64.0,59.0,29.96,NNE,16,7.0,21.0,85,0.00,,,0.37,,2013-07-02 17:02:00,
2013-07-02 12:11:00,64.0,59.0,29.96,NNE,16,7.0,21.0,85,0.00,,,0.37,,2013-07-02 17:11:00,
2013-07-02 12:33:00,64.0,59.0,29.97,ENE,57,9.0,15.0,85,0.00,,,0.37,,2013-07-02 17:33:00,
2013-07-02 12:43:00,64.0,59.0,29.97,ENE,57,9.0,15.0,85,0.00,,,0.37,,2013-07-02 17:43:00,
2013-07-02 12:53:00,64.0,59.0,29.97,ENE,75,9.0,16.0,85,0.00,,,0.37,,2013-07-02 17:53:00,
2013-07-02 13:02:00,64.0,59.0,29.96,NNE,15,5.0,9.0,85,0.00,,,0.37,,2013-07-02 18:02:00,
2013-07-02 13:12:00,64.0,59.0,29.96,NNE,15,5.0,9.0,85,0.00,,,0.37,,2013-07-02 18:12:00,
2013-07-02 13:23:00,64.0,59.0,29.96,NNE,32,6.0,14.0,84,0.00,,,0.37,,2013-07-02 18:23:00,
2013-07-02 13:34:00,65.0,60.0,29.96,ENE,62,8.0,9.0,84,0.00,,,0.37,,2013-07-02 18:34:00,
2013-07-02 13:43:00,65.0,60.0,29.96,ENE,62,8.0,9.0,84,0.00,,,0.37,,2013-07-02 18:43:00,
2013-07-02 13:53:00,65.0,60.0,29.96,NNE,16,12.0,15.0,83,0.00,,,0.37,,2013-07-02 18:53:00,
2013-07-02 14:01:00,65.0,60.0,29.95,NE,38,8.0,10.0,83,0.00,,,0.37,,2013-07-02 19:01:00,
2013-07-02 14:12:00,65.0,60.0,29.95,NE,38,8.0,10.0,83,0.00,,,0.37,,2013-07-02 19:12:00,
2013-07-02 14:22:00,65.0,59.0,29.95,NE,54,11.0,15.0,82,0.00,,,0.37,,2013-07-02 19:22:00,
2013-07-02 14:34:00,66.0,60.0,29.95,ENE,60,10.0,16.0,82,0.00,,,0.37,,2013-07-02 19:34:00,
2013-07-02 14:43:00,66.0,60.0,29.95,ENE,60,10.0,16.0,82,0.00,,,0.37,,2013-07-02 19:43:00,
2013-07-02 14:53:00,66.0,60.0,29.95,NNE,19,10.0,16.0,82,0.00,,,0.37,,2013-07-02 19:53:00,
2013-07-02 15:02:00,66.0,61.0,29.95,NNE,14,3.0,15.0,83,0.00,,,0.37,,2013-07-02 20:02:00,
2013-07-02 15:11:00,66.0,61.0,29.95,NNE,14,3.0,15.0,83,0.00,,,0.37,,2013-07-02 20:11:00,
2013-07-02 15:22:00,66.0,61.0,29.95,NNW,338,5.0,10.0,83,0.00,,,0.37,,2013-07-02 20:22:00,
2013-07-02 15:33:00,66.0,61.0,29.95,NE,38,5.0,14.0,83,0.00,,,0.37,,2013-07-02 20:33:00,
2013-07-02 15:43:00,66.0,61.0,29.95,NE,38,5.0,14.0,83,0.00,,,0.37,,2013-07-02 20:43:00,
2013-07-02 15:52:00,67.0,61.0,29.94,NNE,32,6.0,10.0,82,0.00,,,0.37,,2013-07-02 20:52:00,
2013-07-02 16:02:00,67.0,61.0,29.94,NNW,333,7.0,10.0,82,0.00,,,0.37,,2013-07-02 21:02:00,
2013-07-02 16:11:00,67.0,61.0,29.94,NNW,333,7.0,10.0,82,0.00,,,0.37,,2013-07-02 21:11:00,
2013-07-02 16:22:00,67.0,61.0,29.95,NNW,345,9.0,14.0,82,0.00,,,0.37,,2013-07-02 21:22:00,
2013-07-02 16:33:00,67.0,61.0,29.95,NNW,331,9.0,12.0,82,0.00,,,0.37,,2013-07-02 21:33:00,
2013-07-02 16:44:00,67.0,61.0,29.95,NNW,331,9.0,12.0,82,0.00,,,0.37,,2013-07-02 21:44:00,
2013-07-02 16:52:00,67.0,61.0,29.94,NNE,20,11.0,14.0,81,0.00,,,0.37,,2013-07-02 21:52:00,
2013-07-02 17:01:00,67.0,61.0,29.93,NNW,347,8.0,15.0,81,0.00,,,0.37,,2013-07-02 22:01:00,
2013-07-02 17:11:00,67.0,61.0,29.93,NNW,347,8.0,15.0,81,0.00,,,0.37,,2013-07-02 22:11:00,
2013-07-02 17:22:00,67.0,61.0,29.94,NNE,28,5.0,16.0,82,0.00,,,0.37,,2013-07-02 22:22:00,
2013-07-02 17:34:00,66.0,60.0,29.94,NNE,23,9.0,14.0,82,0.00,,,0.37,,2013-07-02 22:34:00,
2013-07-02 17:43:00,66.0,60.0,29.94,NNE,23,9.0,14.0,82,0.00,,,0.37,,2013-07-02 22:43:00,
2013-07-02 17:53:00,66.0,60.0,29.93,NNE,13,6.0,14.0,82,0.00,,,0.37,,2013-07-02 22:53:00,
2013-07-02 18:01:00,67.0,61.0,29.93,NE,44,9.0,10.0,82,0.00,,,0.37,,2013-07-02 23:01:00,
2013-07-02 18:11:00,67.0,61.0,29.93,NE,44,9.0,10.0,82,0.00,,,0.37,,2013-07-02 23:11:00,
2013-07-02 18:22:00,66.0,60.0,29.94,NNE,26,8.0,15.0,82,0.00,,,0.37,,2013-07-02 23:22:00,
2013-07-02 18:33:00,66.0,60.0,29.94,NNW,335,5.0,15.0,82,0.00,,,0.37,,2013-07-02 23:33:00,
2013-07-02 18:44:00,66.0,60.0,29.94,NNW,335,5.0,15.0,82,0.00,,,0.37,,2013-07-02 23:44:00,
2013-07-02 18:52:00,66.0,61.0,29.94,NNE,22,4.0,14.0,83,0.00,,,0.37,,2013-07-02 23:52:00,
2013-07-02 19:01:00,66.0,61.0,29.94,North,349,9.0,15.0,83,0.00,,,0.37,,2013-07-03 00:01:00,
2013-07-02 19:11:00,66.0,61.0,29.94,North,349,9.0,15.0,83,0.00,,,0.37,,2013-07-03 00:11:00,
2013-07-02 19:22:00,66.0,61.0,29.95,NNE,13,6.0,14.0,84,0.00,,,0.37,,2013-07-03 00:22:00,
2013-07-02 19:33:00,65.0,60.0,29.95,NNW,344,7.0,15.0,84,0.00,,,0.36,,2013-07-03 00:33:00,
2013-07-02 19:44:00,65.0,60.0,29.95,NNW,344,7.0,15.0,84,0.00,,,0.36,,2013-07-03 00:44:00,
2013-07-02 19:52:00,65.0,60.0,29.95,NNE,21,9.0,15.0,85,0.00,,,0.04,,2013-07-03 00:52:00,
2013-07-02 20:01:00,65.0,60.0,29.95,NE,36,9.0,15.0,85,0.00,,,0.04,,2013-07-03 01:01:00,
2013-07-02 20:11:00,65.0,60.0,29.95,NE,36,9.0,15.0,85,0.00,,,0.04,,2013-07-03 01:11:00,
2013-07-02 20:22:00,65.0,61.0,29.96,NE,34,6.0,15.0,86,0.00,,,0.04,,2013-07-03 01:22:00,
2013-07-02 20:33:00,64.0,60.0,29.95,NNW,342,10.0,14.0,86,0.00,,,0.04,,2013-07-03 01:33:00,
2013-07-02 20:42:00,64.0,60.0,29.95,NNW,342,10.0,14.0,86,0.00,,,0.04,,2013-07-03 01:42:00,
2013-07-02 20:59:00,64.0,60.0,29.95,NNW,342,10.0,14.0,86,0.00,,,0.04,,2013-07-03 01:59:00,
2013-07-02 21:14:00,64.0,60.0,29.95,NNW,334,3.0,14.0,86,0.00,,,0.04,,2013-07-03 02:14:00,
2013-07-02 21:39:00,64.0,60.0,29.95,North,351,5.0,9.0,87,0.00,,,0.04,,2013-07-03 02:39:00,
2013-07-02 21:44:00,64.0,60.0,29.95,North,351,5.0,9.0,87,0.00,,,0.04,,2013-07-03 02:44:00,
2013-07-02 21:59:00,64.0,60.0,29.96,NNE,14,10.0,12.0,87,0.00,,,0.04,,2013-07-03 02:59:00,
2013-07-02 22:13:00,64.0,60.0,29.96,NNE,32,6.0,9.0,88,0.00,,,0.04,,2013-07-03 03:13:00,
2013-07-02 22:25:00,64.0,60.0,29.97,North,5,3.0,14.0,88,0.00,,,0.04,,2013-07-03 03:25:00,
2013-07-02 22:35:00,64.0,60.0,29.97,NE,41,1.0,10.0,88,0.00,,,0.04,,2013-07-03 03:35:00,
2013-07-02 22:47:00,64.0,60.0,29.97,NE,41,1.0,10.0,88,0.00,,,0.04,,2013-07-03 03:47:00,
2013-07-02 22:58:00,64.0,60.0,29.97,NE,54,2.0,9.0,88,0.00,,,0.04,,2013-07-03 03:58:00,
2013-07-02 23:01:00,63.0,59.0,29.97,NNW,340,1.0,8.0,88,0.00,,,0.04,,2013-07-03 04:01:00,
2013-07-02 23:11:00,63.0,59.0,29.97,NNW,340,1.0,8.0,88,0.00,,,0.04,,2013-07-03 04:11:00,
2013-07-02 23:22:00,63.0,60.0,29.96,NNE,30,5.0,14.0,89,0.00,,,0.04,,2013-07-03 04:22:00,
2013-07-02 23:33:00,63.0,59.0,29.97,NE,36,2.0,6.0,88,0.00,,,0.04,,2013-07-03 04:33:00,
2013-07-02 23:43:00,63.0,59.0,29.97,NE,36,2.0,6.0,88,0.00,,,0.04,,2013-07-03 04:43:00,
2013-07-02 23:52:00,63.0,59.0,29.97,NE,44,1.0,9.0,88,0.00,,,0.04,,2013-07-03 04:52:00,